Location: Calmejanne
(44.7523°N, 1.9418°E)
Time: 19:35:31
(UTC+00:00)

ARIANE 5 R/B - Pass Details

Date: 14 May 2026
Orbit: 614 x 648 km, 98.0° (Epoch: 14 September)

Event Time Altitude Azimuth Distance (km) Brightness Sun altitude
Exits shadow 22:32:16 36° 74° (ENE) 1,027 3.6 -24.1°
Maximum altitude 22:32:27 36° 69° (ENE) 1,024 3.6 -24.1°
Drops below altitude 10° 22:36:31 10° 3° (N) 2,048 6.1 -24.3°
Sets 22:38:52 0° 355° (N) 2,965 7.3 -24.5°
